When you browse on this site, cookies collect data to enhance your experience and personalize the content and advertising you see.
Visit our Privacy Policy to learn more. By continuing to use the site, you agree to this use of cookies and data.
  • In Czech Republic
  • List of Countries
  • For 7 days
  • Water Temperature
  • Satellite Maps
  • Weather Map
  • Weather Widgets
  • user-avatar
    Login

    Hourly Weather Walker

    Today, 22 April, Monday

    Time Temperature Precipitation Wind Pressure Humidity
    00:00 +12°C° 0 mm 4 mps 744 mmHg 52%
    01:00 +12°C° 0 mm 4 mps 744 mmHg 53%
    02:00 +11°C° 0 mm 4 mps 744 mmHg 54%
    03:00 +11°C° 0 mm 4 mps 744 mmHg 55%
    04:00 +11°C° 0 mm 3 mps 744 mmHg 59%
    05:00 +10°C° 0 mm 3 mps 744 mmHg 63%
    06:00 +10°C° 0 mm 3 mps 744 mmHg 67%
    07:00 +12°C° 0 mm 4 mps 744 mmHg 64%
    08:00 +15°C° 0 mm 4 mps 744 mmHg 61%
    09:00 +17°C° 0 mm 5 mps 744 mmHg 58%
    10:00 +20°C° 0 mm 5 mps 743 mmHg 56%
    11:00 +22°C° 0 mm 6 mps 743 mmHg 54%
    12:00 +24°C° 0 mm 6 mps 742 mmHg 52%
    13:00 +23°C° 0 mm 6 mps 742 mmHg 53%
    14:00 +23°C° 0 mm 6 mps 742 mmHg 53%
    15:00 +23°C° 0 mm 6 mps 741 mmHg 54%
    16:00 +22°C° 0 mm 6 mps 741 mmHg 59%
    17:00 +20°C° 0 mm 5 mps 740 mmHg 65%
    18:00 +19°C° 0 mm 5 mps 739 mmHg 70%
    19:00 +17°C° 0 mm 5 mps 739 mmHg 71%
    20:00 +17°C° 0 mm 6 mps 739 mmHg 73%
    21:00 +17°C° 0 mm 6 mps 739 mmHg 74%
    22:00 +16°C° 0.8 mm 6 mps 738 mmHg 77%
    23:00 +16°C° 0.8 mm 6 mps 738 mmHg 81%

    Tomorrow, 23 April, Tuesday

    Time Temperature Precipitation Wind Pressure Humidity
    00:00 +16°C° 0.8 mm 6 mps 737 mmHg 85%
    01:00 +16°C° 0.3 mm 6 mps 736 mmHg 87%
    02:00 +15°C° 0.3 mm 7 mps 736 mmHg 88%
    03:00 +15°C° 0.3 mm 7 mps 735 mmHg 90%
    04:00 +14°C° 0.2 mm 7 mps 735 mmHg 91%
    05:00 +12°C° 0.2 mm 8 mps 735 mmHg 92%
    06:00 +11°C° 0.2 mm 8 mps 735 mmHg 92%
    07:00 +10°C° 0 mm 8 mps 736 mmHg 91%
    08:00 +7°C° 0 mm 8 mps 737 mmHg 89%
    09:00 +6°C° 0 mm 7 mps 738 mmHg 87%
    10:00 +8°C° 0 mm 7 mps 738 mmHg 82%
    11:00 +9°C° 0 mm 7 mps 739 mmHg 76%
    12:00 +10°C° 0 mm 7 mps 740 mmHg 71%
    13:00 +10°C° 0 mm 7 mps 740 mmHg 69%
    14:00 +10°C° 0 mm 7 mps 740 mmHg 67%
    15:00 +10°C° 0 mm 7 mps 740 mmHg 66%
    16:00 +10°C° 0 mm 6 mps 741 mmHg 67%
    17:00 +9°C° 0 mm 5 mps 741 mmHg 68%
    18:00 +8°C° 0 mm 4 mps 741 mmHg 69%
    19:00 +7°C° 0 mm 4 mps 741 mmHg 71%
    20:00 +7°C° 0 mm 3 mps 742 mmHg 73%
    21:00 +6°C° 0 mm 2 mps 742 mmHg 75%
    22:00 +5°C° 0 mm 2 mps 742 mmHg 75%
    23:00 +4°C° 0 mm 2 mps 742 mmHg 76%

    Day after tomorrow, 24 April, Wednesday

    Time Temperature Precipitation Wind Pressure Humidity
    00:00 +5°C° 0 mm 1 mps 742 mmHg 77%
    01:00 +5°C° 0 mm 1 mps 742 mmHg 76%
    02:00 +4°C° 0 mm 1 mps 742 mmHg 75%
    03:00 +4°C° 0 mm 1 mps 742 mmHg 74%
    04:00 +4°C° 0 mm 1 mps 742 mmHg 72%
    05:00 +5°C° 0 mm 1 mps 742 mmHg 70%
    06:00 +5°C° 0 mm 1 mps 743 mmHg 68%
    07:00 +8°C° 0 mm 1 mps 743 mmHg 60%
    08:00 +10°C° 0 mm 1 mps 743 mmHg 51%
    09:00 +12°C° 0 mm 1 mps 743 mmHg 43%
    10:00 +14°C° 0 mm 2 mps 743 mmHg 44%
    11:00 +14°C° 0 mm 3 mps 742 mmHg 45%
    12:00 +16°C° 0 mm 3 mps 742 mmHg 46%
    13:00 +15°C° 0 mm 4 mps 742 mmHg 48%
    14:00 +15°C° 0 mm 4 mps 741 mmHg 51%
    15:00 +15°C° 0 mm 4 mps 740 mmHg 53%
    16:00 +14°C° 0 mm 3 mps 740 mmHg 58%
    17:00 +13°C° 0 mm 3 mps 740 mmHg 62%
    18:00 +13°C° 0 mm 2 mps 739 mmHg 67%
    19:00 +12°C° 0 mm 2 mps 739 mmHg 67%
    20:00 +10°C° 0 mm 2 mps 740 mmHg 68%
    21:00 +9°C° 0 mm 3 mps 740 mmHg 69%
    22:00 +9°C° 0 mm 3 mps 739 mmHg 69%
    23:00 +9°C° 0 mm 3 mps 739 mmHg 69%

    25 April, Thursday

    Time Temperature Precipitation Wind Pressure Humidity
    00:00 +8°C° 0 mm 4 mps 739 mmHg 70%
    01:00 +8°C° 0 mm 4 mps 739 mmHg 70%
    02:00 +8°C° 0 mm 4 mps 738 mmHg 70%
    03:00 +8°C° 0 mm 4 mps 738 mmHg 71%
    04:00 +8°C° 0 mm 4 mps 738 mmHg 70%
    05:00 +8°C° 0 mm 4 mps 738 mmHg 70%
    06:00 +8°C° 0 mm 4 mps 738 mmHg 69%
    07:00 +11°C° 0 mm 4 mps 738 mmHg 66%
    08:00 +13°C° 0 mm 5 mps 738 mmHg 62%
    09:00 +15°C° 0 mm 5 mps 739 mmHg 59%
    10:00 +15°C° 0 mm 5 mps 738 mmHg 58%
    11:00 +15°C° 0 mm 5 mps 738 mmHg 58%
    12:00 +15°C° 0 mm 5 mps 738 mmHg 58%
    13:00 +16°C° 0 mm 5 mps 737 mmHg 58%
    14:00 +17°C° 0 mm 4 mps 737 mmHg 58%
    15:00 +18°C° 0 mm 4 mps 737 mmHg 57%
    16:00 +15°C° 0.7 mm 4 mps 737 mmHg 69%
    17:00 +12°C° 0.7 mm 3 mps 738 mmHg 81%
    18:00 +10°C° 0.7 mm 3 mps 738 mmHg 93%
    19:00 +10°C° 0 mm 3 mps 739 mmHg 93%
    20:00 +9°C° 0 mm 3 mps 739 mmHg 94%
    21:00 +8°C° 0 mm 3 mps 740 mmHg 95%
    22:00 +7°C° 0 mm 2 mps 740 mmHg 95%
    23:00 +7°C° 0 mm 2 mps 740 mmHg 95%

    26 April, Friday

    Time Temperature Precipitation Wind Pressure Humidity
    00:00 +7°C° 0 mm 2 mps 740 mmHg 95%
    01:00 +6°C° 0 mm 2 mps 740 mmHg 94%
    02:00 +6°C° 0 mm 2 mps 740 mmHg 93%
    03:00 +6°C° 0 mm 2 mps 740 mmHg 92%
    04:00 +6°C° 0 mm 2 mps 741 mmHg 91%
    05:00 +7°C° 0 mm 2 mps 741 mmHg 90%
    06:00 +7°C° 0 mm 3 mps 742 mmHg 89%
    07:00 +9°C° 0 mm 3 mps 742 mmHg 82%
    08:00 +12°C° 0 mm 3 mps 742 mmHg 75%
    09:00 +14°C° 0 mm 4 mps 743 mmHg 67%
    10:00 +15°C° 0 mm 4 mps 743 mmHg 58%
    11:00 +15°C° 0 mm 5 mps 743 mmHg 48%
    12:00 +16°C° 0 mm 5 mps 743 mmHg 39%
    13:00 +16°C° 0 mm 6 mps 743 mmHg 38%
    14:00 +15°C° 0 mm 6 mps 743 mmHg 37%
    15:00 +15°C° 0 mm 6 mps 743 mmHg 36%
    16:00 +14°C° 0 mm 5 mps 743 mmHg 40%
    17:00 +12°C° 0 mm 3 mps 744 mmHg 45%
    18:00 +12°C° 0 mm 2 mps 744 mmHg 49%
    19:00 +9°C° 0 mm 2 mps 744 mmHg 49%
    20:00 +8°C° 0 mm 2 mps 745 mmHg 49%
    21:00 +7°C° 0 mm 2 mps 745 mmHg 49%
    22:00 +6°C° 0 mm 2 mps 745 mmHg 49%
    23:00 +4°C° 0 mm 3 mps 745 mmHg 50%

    27 April, Saturday

    Time Temperature Precipitation Wind Pressure Humidity
    00:00 +3°C° 0 mm 3 mps 745 mmHg 50%
    01:00 +3°C° 0 mm 3 mps 745 mmHg 50%
    02:00 +4°C° 0 mm 2 mps 745 mmHg 49%
    03:00 +3°C° 0 mm 2 mps 745 mmHg 49%
    04:00 +3°C° 0 mm 3 mps 745 mmHg 50%
    05:00 +3°C° 0 mm 4 mps 745 mmHg 50%
    06:00 +4°C° 0 mm 4 mps 744 mmHg 51%
    07:00 +5°C° 0.1 mm 4 mps 744 mmHg 51%
    08:00 +6°C° 0.1 mm 4 mps 744 mmHg 50%
    09:00 +8°C° 0.1 mm 4 mps 744 mmHg 50%
    10:00 +8°C° 0.7 mm 4 mps 743 mmHg 58%
    11:00 +7°C° 0.7 mm 5 mps 742 mmHg 65%
    12:00 +7°C° 0.7 mm 5 mps 741 mmHg 72%
    13:00 +7°C° 0.2 mm 5 mps 740 mmHg 73%
    14:00 +8°C° 0.2 mm 5 mps 739 mmHg 73%
    15:00 +8°C° 0.2 mm 6 mps 738 mmHg 73%
    16:00 +8°C° 0 mm 6 mps 738 mmHg 73%
    17:00 +8°C° 0 mm 6 mps 737 mmHg 72%
    18:00 +8°C° 0 mm 6 mps 737 mmHg 71%
    19:00 +8°C° 0.2 mm 6 mps 736 mmHg 73%
    20:00 +9°C° 0.2 mm 6 mps 736 mmHg 74%
    21:00 +9°C° 0.2 mm 5 mps 735 mmHg 75%
    22:00 +9°C° 0.9 mm 6 mps 734 mmHg 80%
    23:00 +10°C° 0.9 mm 6 mps 734 mmHg 86%
    Show more